Torna al catalogo

STARLINK-38108

AttivoComunicazioniVLEO
NORAD 100024·PAYLOAD·🇺🇸 United States

Lanciato Jul 14, 2026 da Vandenberg Space Force Base

Loading…

Prossimi Passaggi (prossime 24 ore)

TLE

AggiornatoSource: Space-Track

Epoca: Sep 14, 2026, 22:26 UTC

1 A0024U 26160Z   26257.93540253 -.00310428  00000-0 -21098-2 0  9996
2 A0024  70.0010 210.7518 0007102 292.6103  67.4344 15.75471714 11117

Traccia STARLINK-38108 in tempo reale con AllMySat

Download on the App Store